Le nostre stazioni meteo in Italia

Pubblicità
Il mio iltempo24.it
Kielder Castle, Gran Bretagna (99186): Temperatura & dewpoint: 14.08.2017 05:00:00 - 20.08.2017 05:00:00 (BST)Kielder Castle, Gran Bretagna (99186): Temperatura -20cm & Temperatura -100cm: 14.08.2017 05:00:00 - 20.08.2017 05:00:00 (BST)Kielder Castle, Gran Bretagna (99186): visibility: 14.08.2017 05:00:00 - 20.08.2017 05:00:00 (BST)Kielder Castle, Gran Bretagna (99186): precipitazioni: 14.08.2017 05:00:00 - 20.08.2017 05:00:00 (BST)
Data & Tempo tt [°C] td [°C] tt -20cm [°C] tt -100cm [°C] vv [km] rr [mm]
20.08.2017 05:00:00 - - - - - -
20.08.2017 04:00:00 11,2 10,1 - - - 0,0
20.08.2017 03:00:00 11,3 10,3 - - - 0,0
20.08.2017 02:00:00 11,0 9,9 - - - 0,0
20.08.2017 01:00:00 11,5 10,2 - - - 0,0
20.08.2017 00:00:00 11,0 9,8 - - - 0,0
19.08.2017 23:00:00 11,5 10,0 - - - 0,0
19.08.2017 22:00:00 12,0 10,1 - - - 0,0
19.08.2017 21:00:00 12,0 10,2 - - - 0,0
19.08.2017 20:00:00 12,1 10,7 - - - 0,0
19.08.2017 19:00:00 12,2 10,9 - - - 0,4
19.08.2017 18:00:00 13,0 10,4 - - - 0,0
19.08.2017 17:00:00 13,8 10,1 - - - 0,0
19.08.2017 16:00:00 15,4 10,4 - - - 0,0
19.08.2017 15:00:00 14,0 10,6 - - - 0,0
19.08.2017 14:00:00 15,9 11,7 - - - 0,0
19.08.2017 13:00:00 14,3 10,0 - - - 0,0
19.08.2017 12:00:00 13,5 8,4 - - - 0,0
19.08.2017 11:00:00 14,5 10,1 - - - 0,0
19.08.2017 10:00:00 12,3 8,9 16,0 14,7 - 0,0
19.08.2017 09:00:00 11,8 9,4 - - - 0,0
19.08.2017 08:00:00 10,7 8,9 - - - 0,0
19.08.2017 07:00:00 10,5 9,2 - - - 0,0
19.08.2017 06:00:00 9,4 8,3 - - - 0,0
19.08.2017 05:00:00 10,2 8,8 - - - 0,0
19.08.2017 04:00:00 10,6 9,0 - - - 0,0
19.08.2017 03:00:00 10,1 8,5 - - - 0,0
19.08.2017 02:00:00 11,0 9,3 - - - 0,0
19.08.2017 01:00:00 11,5 10,4 - - - 0,2
19.08.2017 00:00:00 11,7 10,5 - - - 0,0
18.08.2017 23:00:00 11,6 10,5 - - - 0,0
18.08.2017 22:00:00 10,5 9,8 - - - 0,0
18.08.2017 21:00:00 10,2 9,4 - - - 0,0
18.08.2017 20:00:00 11,2 10,3 - - - 0,0
18.08.2017 19:00:00 11,1 10,1 - - - 1,6
18.08.2017 18:00:00 10,1 7,5 - - - 0,6
18.08.2017 17:00:00 12,7 10,4 - - - 0,0
18.08.2017 16:00:00 11,8 9,8 - - - 2,6
18.08.2017 15:00:00 10,1 8,5 - - - 2,8
18.08.2017 14:00:00 12,7 10,0 - - - 0,2
18.08.2017 13:00:00 10,7 9,0 - - - 1,2
18.08.2017 12:00:00 13,3 10,0 - - - 0,2
18.08.2017 11:00:00 14,1 11,8 - - - 0,2
18.08.2017 10:00:00 12,1 9,8 16,7 14,7 - 0,0
18.08.2017 09:00:00 10,9 9,5 - - - 0,0
18.08.2017 08:00:00 10,8 10,0 - - - 0,0
18.08.2017 07:00:00 10,9 9,9 - - - 0,0
18.08.2017 06:00:00 12,2 11,7 - - - 3,0
18.08.2017 05:00:00 12,5 12,0 - - - 4,4
18.08.2017 04:00:00 12,5 12,1 - - - 6,4
18.08.2017 03:00:00 12,4 11,7 - - - 1,6
18.08.2017 02:00:00 13,1 11,4 - - - 0,0
18.08.2017 01:00:00 13,6 11,8 - - - -
18.08.2017 00:00:00 13,3 11,7 - - - 0,0
17.08.2017 23:00:00 13,3 11,7 - - - 0,0
17.08.2017 22:00:00 13,5 12,4 - - - 0,0
17.08.2017 21:00:00 14,3 12,7 - - - 0,0
17.08.2017 20:00:00 14,7 13,1 - - - 0,0
17.08.2017 19:00:00 15,7 12,4 - - - 0,0
17.08.2017 18:00:00 16,9 11,4 - - - 0,0
17.08.2017 17:00:00 17,6 12,0 - - - 0,0
17.08.2017 16:00:00 19,1 12,2 - - - 0,0
17.08.2017 15:00:00 18,8 10,7 - - - 0,0
17.08.2017 14:00:00 19,2 12,7 - - - 0,0
17.08.2017 13:00:00 18,8 12,1 - - - 0,0
17.08.2017 12:00:00 18,3 12,6 - - - 0,0
17.08.2017 11:00:00 17,4 12,8 - - - 0,0
17.08.2017 10:00:00 15,7 12,4 16,2 14,7 10 0,0
17.08.2017 09:00:00 14,0 12,3 - - - 0,0
17.08.2017 08:00:00 12,9 12,3 - - - 0,0
17.08.2017 07:00:00 12,7 12,3 - - - 0,2
17.08.2017 06:00:00 13,2 12,7 - - - 0,0
17.08.2017 05:00:00 13,7 13,2 - - - 0,2
17.08.2017 04:00:00 13,8 13,3 - - - 0,6
17.08.2017 03:00:00 14,0 13,4 - - - 1,6
17.08.2017 02:00:00 14,1 13,6 - - - 0,8
17.08.2017 01:00:00 14,1 13,5 - - - 0,4
17.08.2017 00:00:00 14,3 13,4 - - - 0,2
16.08.2017 23:00:00 14,2 13,3 - - - 0,2
16.08.2017 22:00:00 14,0 13,1 - - - 1,2
16.08.2017 21:00:00 13,9 12,9 - - - 3,0
16.08.2017 20:00:00 15,7 11,7 - - - 0,0
16.08.2017 19:00:00 16,5 11,7 - - - 0,0
16.08.2017 18:00:00 15,8 11,6 - - - 0,0
16.08.2017 17:00:00 15,8 11,7 - - - 0,0
16.08.2017 16:00:00 17,4 12,0 - - - 0,0
16.08.2017 15:00:00 17,4 9,7 - - - 0,0
16.08.2017 14:00:00 16,9 9,6 - - - 0,0
16.08.2017 13:00:00 17,0 9,9 - - - 0,0
16.08.2017 12:00:00 15,8 9,3 - - - 0,0
16.08.2017 11:00:00 16,0 9,9 - - - 0,0
16.08.2017 10:00:00 15,6 10,5 15,9 14,7 0,05 0,0
16.08.2017 09:00:00 14,4 10,7 - - - 0,0
16.08.2017 08:00:00 11,7 11,2 - - - 0,0
16.08.2017 07:00:00 10,5 10,2 - - - 0,0
16.08.2017 06:00:00 10,2 9,9 - - - 0,0
16.08.2017 05:00:00 10,0 9,3 - - - 0,0
16.08.2017 04:00:00 11,3 10,4 - - - 0,0
16.08.2017 03:00:00 12,0 11,7 - - - 0,0
16.08.2017 02:00:00 11,3 10,9 - - - 0,0
16.08.2017 01:00:00 10,9 10,5 - - - 0,0
16.08.2017 00:00:00 11,4 11,0 - - - 0,0
15.08.2017 23:00:00 11,1 10,0 - - - 0,0
15.08.2017 22:00:00 12,6 11,2 - - - 0,0
15.08.2017 21:00:00 12,9 11,4 - - - 0,0
15.08.2017 20:00:00 13,0 11,4 - - - 0,2
15.08.2017 19:00:00 14,1 11,1 - - - 0,0
15.08.2017 18:00:00 14,9 10,6 - - - 0,0
15.08.2017 17:00:00 15,6 10,7 - - - 0,0
15.08.2017 16:00:00 16,5 11,1 - - - 0,0
15.08.2017 15:00:00 15,7 13,7 - - - 1,8
15.08.2017 14:00:00 13,9 11,5 - - - 0,2
15.08.2017 13:00:00 15,4 11,6 - - - 0,0
15.08.2017 12:00:00 15,6 11,4 - - - 0,0
15.08.2017 11:00:00 16,1 12,5 - - - 0,0
15.08.2017 10:00:00 15,0 13,1 15,5 14,7 10 0,0
15.08.2017 09:00:00 13,1 12,7 - - - 1,2
15.08.2017 08:00:00 12,8 12,6 - - - 0,4
15.08.2017 07:00:00 12,1 11,8 - - - 0,0
15.08.2017 06:00:00 11,9 11,6 - - - 0,0
15.08.2017 05:00:00 12,2 11,9 - - - 0,2
15.08.2017 04:00:00 12,6 12,4 - - - 3,6
15.08.2017 03:00:00 12,7 12,3 - - - 1,2
15.08.2017 02:00:00 13,0 12,5 - - - 1,8
15.08.2017 01:00:00 13,5 12,9 - - - 3,8
15.08.2017 00:00:00 13,9 13,4 - - - 1,6
14.08.2017 23:00:00 14,1 13,4 - - - 1,8
14.08.2017 22:00:00 14,4 13,4 - - 10 0,4
14.08.2017 21:00:00 14,7 13,9 - - - 0,2
14.08.2017 20:00:00 15,2 13,6 - - - 0,0
14.08.2017 19:00:00 15,5 14,0 - - - -
14.08.2017 18:00:00 15,3 14,1 - - - 0,0
14.08.2017 17:00:00 14,8 13,9 - - - 1,0
14.08.2017 16:00:00 14,6 13,3 - - - -
14.08.2017 15:00:00 15,4 12,6 - - - 0,0
14.08.2017 14:00:00 15,2 12,9 - - - 0,0
14.08.2017 13:00:00 15,7 12,4 - - - 0,0
14.08.2017 12:00:00 13,9 11,2 - - - 0,0
14.08.2017 11:00:00 13,2 11,2 - - - 0,0
14.08.2017 10:00:00 12,6 11,6 15,2 14,7 21 0,2
14.08.2017 09:00:00 11,6 11,1 - - - 0,8
14.08.2017 08:00:00 10,4 10,2 - - - 0,6
14.08.2017 07:00:00 8,9 8,5 - - - 0,0
14.08.2017 06:00:00 8,7 8,2 - - - 0,0
14.08.2017 05:00:00 8,2 7,7 - - - 0,0

tt = Temperatura
td = dewpoint
tt -20cm = Temperatura -20cm
tt -100cm = Temperatura -100cm
vv = visibility
rr = precipitazioni

Stazioni seguenti

WeatherPro
AMSI
MeteoEarth